RH
72 75 77 78 81 83 81 70 82 61 59 50 49 54 53 59 72 76 73 78 74 75 75 72 75 73 76 80 84 83 86 89 92 91 90 93 95 94 94 94 95 94 94 94
88 69 74 82 78 80 72 65 68 68 63 41 43 42 44 52 63 76 72 71 71 71 74 75 78 75 74 81 84 84 88 90 87 82 81 86 88 88 87 90 90 85 82 88
91 80 78 85 77 84 81 71 62 71 54 49 45 42 44 53 58 68 73 69 69 70 70 71 74 73 76 77 80 86 88 88 85 82 85 87 87 89 93 95 95 97 97 94
92 84 97 56 67 64 71 68 65 59 54 50 45 48 55 68 64 74 75 69 70 71 72 70 70 71 76 80 85 88 91 91 84 87 93 91 96 97 99 97 99 99 100 100
91 92 67 72 71 74 76 74 64 63 56 64 66 71 78 70 78 77 74 68 68 67 71 71 76 76 80 80 87 94 96 92 90 95 97 96 98 98 98 98 99 99 95 94
92 93 88 76 71 63 69 90 68 60 58 71 80 80 73 72 73 73 66 67 69 69 74 79 82 80 82 84 91 96 93 93 93 96 97 98 98 99 100 98 99 97 97 91
88 93 78 64 77 68 89 76 69 62 62 77 80 72 80 69 68 69 72 76 78 77 84 84 81 81 87 88 97 97 91 93 97 97 98 97 100 98 94 99 98 98 93 91
83 79 83 66 64 71 70 67 68 74 76 76 82 76 72 69 70 73 75 76 80 88 90 89 84 86 94 99 99 96 92 97 98 96 90 92 95 98 96 94 92 91 91 90
69 69 53 63 64 60 64 68 74 67 74 75 78 77 72 72 68 70 72 74 80 91 94 91 89 88 97 98 94 93 92 94 96 93 86 86 97 95 93 80 75 75 72 78
66 62 61 65 65 64 62 72 76 69 67 73 76 77 73 72 70 72 73 77 86 92 95 97 95 93 94 95 90 93 89 88 89 95 97 98 89 82 71 66 58 53 57 64
71 65 63 62 70 72 75 74 74 76 73 70 73 78 78 79 76 74 75 80 87 92 95 95 94 96 97 94 91 92 90 92 94 97 96 90 66 60 54 55 51 53 58 61
76 61 63 74 80 73 74 77 76 77 78 72 68 70 79 82 81 79 80 86 87 92 91 93 89 88 92 90 86 86 89 95 94 78 67 75 67 82 62 66 56 53 56 61
60 68 71 75 76 80 78 80 80 81 82 82 74 78 86 86 83 79 80 80 80 86 85 88 84 88 88 86 83 85 83 76 66 57 67 82 86 86 89 74 59 58 58 59
68 69 80 81 81 79 77 78 75 82 80 79 81 78 84 85 86 84 84 78 76 78 81 83 83 82 82 85 84 79 82 65 60 54 57 70 79 84 82 80 74 66 61 59
81 79 75 78 78 83 84 82 86 86 87 84 82 85 87 87 88 85 82 82 78 81 81 79 84 82 82 83 85 72 70 71 62 61 60 63 72 78 78 76 70 54 60 59
87 84 83 84 86 87 86 87 89 88 89 89 90 89 88 88 90 89 85 78 81 84 81 80 81 81 87 84 86 74 61 61 62 58 60 71 63 63 61 56 52 45 49 50
86 89 90 91 88 89 90 85 83 86 90 90 90 91 92 92 90 92 87 80 77 78 78 78 80 80 84 88 85 75 63 66 65 60 59 62 53 48 46 46 47 48 48 44
85 84 85 84 88 88 86 84 84 85 85 81 72 71 82 88 92 91 92 88 86 87 82 79 79 82 83 81 79 72 64 61 67 62 55 55 50 45 44 45 47 48 48 47
84 86 87 88 91 91 90 90 93 93 88 80 73 72 78 83 88 89 91 94 93 93 86 87 85 87 86 83 79 73 67 60 58 61 52 51 52 46 45 46 46 47 50 47
93 92 89 90 91 96 98 97 94 94 87 88 90 79 73 78 84 92 94 96 92 91 86 90 90 88 87 84 80 72 67 61 56 54 52 48 49 50 44 46 44 43 45 46
90 89 93 94 95 92 92 90 92 90 88 88 93 94 94 86 86 95 99 99 95 94 94 92 94 92 88 82 83 78 69 63 56 54 52 51 47 48 47 44 44 45 43 45
99 95 92 91 93 94 93 89 96 97 96 95 94 95 95 96 95 92 94 98 96 90 94 98 97 92 91 82 86 87 75 66 70 75 60 52 50 50 56 60 61 58 57 63
95 87 84 82 84 95 92 91 93 96 98 97 97 98 97 96 97 98 96 96 99 98 98 99 95 91 88 88 91 90 81 78 94 96 96 95 80 70 76 82 82 79 80 76
75 74 80 67 72 72 83 91 94 95 96 94 96 98 99 96 94 99 99 96 96 98 99 99 98 96 94 98 98 98 98 98 97 97 97 96 97 96 96 90 89 84 82 72
73 85 85 84 66 70 84 91 88 89 90 90 93 93 95 93 99 92 97 98 97 98 99 100 100 99 99 99 99 99 98 98 98 98 97 97 96 96 95 96 95 83 80 78
62 59 64 67 67 69 72 81 92 86 82 74 77 87 87 90 88 87 94 88 97 97 99 98 99 100 100 99 99 99 98 98 98 98 96 96 97 96 96 96 96 78 77 83
80 69 86 63 64 67 70 78 90 92 82 73 76 81 85 87 88 86 83 89 93 93 96 98 99 98 99 99 99 98 98 98 97 97 96 96 96 95 96 96 86 77 83 85
Wind_Speed
2 5 4 5 8 10 8 6 6 4 7 7 10 9 10 9 8 8 8 8 8 8 6 6 6 5 5 5 5 5 6 5 5 5 6 6 7 7 7 7 7 6 7 6
4 1 1 2 6 8 6 5 3 4 6 6 6 3 6 9 9 9 8 9 9 8 8 7 7 6 5 5 5 6 6 5 4 6 6 6 6 7 7 7 7 7 8 7
3 1 2 6 11 9 5 5 7 7 7 2 11 10 10 8 10 11 9 9 10 10 9 7 7 7 6 6 6 6 6 5 5 6 6 6 7 7 7 6 7 7 6 7
2 3 2 5 1 7 9 6 8 3 5 3 7 5 5 3 9 8 8 8 7 7 6 6 6 6 7 6 6 6 5 5 6 6 6 7 7 6 5 5 5 4 7 7
3 3 5 3 3 5 7 7 9 8 5 1 4 4 1 1 2 6 7 6 6 7 7 6 7 8 8 7 6 6 5 5 6 6 6 6 6 6 5 4 4 5 5 6
2 2 4 2 1 1 4 5 4 8 7 6 5 3 5 4 3 4 5 6 8 8 7 8 7 8 9 8 7 6 6 6 6 7 6 6 6 6 3 3 3 3 4 4
2 2 7 4 2 3 1 5 1 6 6 6 5 4 2 6 3 4 4 7 7 7 7 7 7 8 8 7 6 6 7 7 7 7 7 6 5 5 5 3 4 3 5 4
3 3 6 4 2 4 3 1 2 3 4 5 4 5 4 5 6 6 7 7 6 6 6 5 7 7 7 6 6 7 8 7 7 7 6 5 6 3 5 5 5 4 4 3
7 6 5 5 3 2 3 3 2 3 2 5 5 4 5 5 6 6 7 6 5 6 6 5 5 6 7 7 9 8 8 8 8 8 6 7 5 5 3 4 4 4 3 2
1 2 4 4 1 2 1 3 3 3 3 4 4 5 5 5 6 7 7 7 5 7 6 6 5 5 5 9 9 9 9 8 7 7 7 5 3 4 4 4 3 3 3 3
3 5 1 2 3 4 4 5 5 3 2 1 2 4 5 5 6 7 7 6 7 7 6 7 6 6 7 9 10 9 9 7 7 5 6 5 4 4 4 3 5 4 4 4
5 4 3 3 4 5 5 4 4 3 2 3 2 4 5 5 6 7 7 6 7 6 7 7 7 8 8 9 10 9 8 6 6 4 4 4 4 3 5 4 5 7 8 6
5 3 3 5 4 3 5 4 3 2 1 3 4 2 3 4 5 8 6 8 9 10 9 8 9 9 9 10 10 8 8 7 5 6 5 5 4 4 5 1 3 5 6 6
3 7 3 3 4 4 5 3 3 2 2 2 3 3 1 4 4 6 8 9 8 9 9 10 10 10 10 11 11 7 7 14 6 5 5 5 5 4 4 4 4 3 7 6
3 5 1 6 6 5 3 1 3 3 3 4 4 4 4 3 5 7 6 7 7 8 9 10 10 10 10 11 11 9 8 6 6 5 5 7 5 5 4 4 4 4 2 5
6 6 6 5 4 3 3 4 2 2 3 4 5 6 6 5 6 5 5 8 9 9 10 11 11 11 9 11 9 7 7 13 10 6 5 5 5 5 5 5 5 4 4 4
5 4 4 3 3 2 2 1 1 2 2 3 5 5 6 6 6 5 5 8 10 9 11 12 12 10 11 10 11 7 6 6 12 6 6 6 6 6 5 5 5 4 5 5
6 6 5 4 2 2 3 3 3 4 3 4 5 5 6 6 6 6 6 6 6 6 9 10 10 10 11 12 11 7 7 7 6 7 6 6 7 6 6 5 5 5 4 4
6 6 5 5 4 3 3 4 4 6 6 6 5 5 6 6 6 7 5 6 7 9 8 8 14 14 12 14 13 8 8 9 8 7 7 10 7 6 6 6 6 5 5 4
6 5 6 6 6 5 4 4 5 5 6 7 7 6 6 5 6 7 5 8 8 5 5 8 10 12 12 13 19 9 10 10 10 9 8 8 7 7 7 10 7 6 6 6
6 6 6 5 4 4 3 4 5 5 6 6 6 7 6 7 6 6 3 3 3 5 4 6 7 7 7 9 13 9 9 9 9 9 8 8 8 8 7 7 6 6 6 6
3 3 3 3 3 3 2 3 4 4 4 5 5 5 6 6 5 5 4 4 3 8 3 2 3 8 6 14 8 9 9 10 9 8 8 8 7 8 7 7 7 7 6 6
1 1 1 2 3 3 3 3 4 4 4 4 5 5 5 5 4 4 4 4 3 6 3 2 6 9 13 8 7 8 9 10 10 9 9 9 10 8 6 6 6 6 6 6
1 1 1 3 3 3 4 4 5 4 4 5 4 4 4 5 5 1 3 8 10 8 5 4 6 10 12 5 6 7 7 8 9 9 9 14 9 8 8 7 5 6 6 8
1 1 0 2 2 2 3 4 4 4 4 4 5 5 5 3 3 5 5 5 9 7 4 7 10 11 5 4 5 6 6 7 7 7 8 9 9 9 9 7 7 7 6 6
2 2 2 3 3 2 2 3 3 3 3 4 3 4 4 4 4 4 4 6 4 7 4 4 3 3 3 3 5 6 6 6 7 8 8 8 8 9 8 8 6 8 6 6
2 3 1 3 2 2 2 2 3 3 3 3 5 3 4 4 5 6 8 5 5 5 4 3 3 4 3 3 4 5 5 5 8 6 7 7 8 8 8 7 7 7 5 5
Wind_Direction
114 125 128 174 181 173 187 214 164 257 211 206 190 172 175 170 161 160 174 174 175 168 170 164 149 142 129 119 121 115 101 93 89 86 76 71 68 62 60 59 61 63 70 67
346 354 97 277 228 193 211 210 223 245 269 199 201 141 155 175 169 184 190 184 181 171 170 172 167 159 143 135 133 120 111 109 108 99 90 80 76 74 68 62 56 66 71 79
273 242 22 304 221 193 194 209 179 201 231 204 183 198 186 190 189 192 190 184 179 179 177 170 166 156 154 144 127 117 118 115 107 106 100 92 90 83 75 65 66 59 58 73
160 74 247 250 60 186 199 204 206 246 258 239 192 174 176 192 184 188 179 180 175 157 150 156 152 142 130 126 125 122 120 126 125 121 114 105 98 91 79 70 71 81 68 58
156 202 287 279 228 152 167 256 198 201 231 141 101 76 354 125 160 197 188 173 160 152 147 138 142 140 129 130 125 128 137 136 132 128 122 127 119 114 105 100 86 68 66 73
146 167 232 254 241 176 129 287 179 183 189 170 138 152 243 178 163 155 140 130 139 135 128 138 148 141 138 145 147 149 147 136 135 130 135 130 124 120 96 100 84 89 79 79
187 233 287 253 181 157 156 243 29 168 162 165 178 191 152 132 118 120 118 126 118 125 143 148 140 139 143 148 155 144 137 136 130 131 132 122 118 128 126 95 109 93 94 73
170 223 278 166 87 188 223 72 116 106 135 157 136 137 148 160 156 148 139 132 133 135 146 142 139 137 144 153 142 138 138 137 134 132 136 138 140 139 141 132 119 121 118 88
167 211 237 202 234 247 142 134 126 112 95 131 133 187 177 188 171 158 155 148 148 150 148 141 143 147 155 154 149 147 147 145 147 141 146 156 159 158 136 144 147 159 155 156
70 275 233 204 134 96 99 111 91 93 119 150 175 180 192 188 174 171 171 172 156 153 160 156 151 155 157 159 157 156 157 164 165 146 160 173 172 167 165 172 169 175 180 188
261 284 308 230 232 143 102 101 100 74 75 264 199 202 196 193 187 184 175 164 169 174 171 172 166 162 160 167 163 165 164 163 161 165 168 177 190 188 187 209 179 180 201 184
226 223 184 242 155 137 127 126 106 95 37 356 304 254 194 203 191 178 177 161 174 177 171 174 171 172 172 173 174 173 169 163 174 165 169 170 162 122 183 176 183 192 179 170
206 178 180 139 119 101 129 136 107 79 22 321 320 307 198 200 191 188 173 178 186 187 183 174 180 180 179 181 184 180 172 166 173 172 168 161 161 155 152 152 158 179 183 188
177 117 81 175 184 134 124 106 74 42 360 314 298 321 241 195 182 184 190 193 180 177 181 178 184 188 188 187 189 173 170 182 175 171 171 170 177 181 173 180 198 229 233 209
151 28 114 118 115 118 91 79 67 30 355 352 357 349 343 232 219 214 191 175 174 178 184 185 189 195 197 191 190 178 176 179 175 175 177 186 178 182 187 192 209 218 207 245
114 98 89 102 113 102 97 62 60 335 344 342 341 339 329 307 268 237 196 179 178 196 194 197 201 194 191 194 185 178 184 188 179 179 183 178 179 188 193 203 207 211 211 219
117 144 130 115 112 93 69 29 326 287 296 309 302 307 325 326 305 266 219 200 206 203 197 199 204 192 187 188 187 187 178 183 192 183 185 187 187 198 198 194 205 208 219 211
77 70 58 80 92 23 14 13 342 321 319 326 314 310 308 297 279 278 253 219 213 221 207 202 194 190 191 192 191 182 180 187 188 189 185 190 199 196 196 202 207 211 220 225
60 75 60 57 36 21 8 353 342 327 320 315 312 298 281 273 270 269 261 229 220 229 226 191 194 190 195 196 186 184 189 188 192 189 189 202 207 199 199 203 210 211 207 213
70 66 62 55 44 34 18 9 343 332 336 331 317 307 304 311 310 295 249 231 225 226 180 195 192 199 198 195 192 191 191 195 196 195 190 194 199 203 205 209 208 211 208 215
74 63 57 40 30 35 17 355 342 341 334 336 329 320 309 309 308 316 298 259 274 239 217 208 200 207 200 187 192 193 194 195 196 195 194 195 198 207 205 206 208 207 213 218
58 27 25 13 357 323 317 339 335 333 333 335 331 324 325 318 322 318 281 258 324 319 279 230 209 206 193 194 194 196 197 199 196 198 202 199 198 206 206 202 207 212 215 216
282 292 316 334 324 304 358 2 341 333 334 330 341 341 331 313 310 313 317 350 330 315 300 262 253 242 224 207 201 203 201 198 198 197 197 198 207 204 203 203 209 209 210 216
234 335 341 349 343 10 353 331 331 339 344 338 325 316 322 331 326 336 314 313 316 321 288 270 263 258 247 214 204 206 198 197 198 197 195 195 196 194 204 207 212 221 221 225
233 247 90 3 342 324 314 314 325 344 345 335 325 319 321 305 271 302 303 304 313 319 296 292 285 269 246 219 198 200 196 198 198 195 194 196 193 195 198 202 212 225 218 214
239 259 264 258 256 264 300 319 316 318 329 328 313 319 326 319 319 330 303 315 307 316 307 308 295 277 232 209 202 199 194 195 201 199 195 197 197 197 197 201 204 223 213 206
245 245 296 295 255 259 297 298 319 313 326 312 300 315 323 326 329 339 340 330 326 321 315 314 319 314 292 223 202 198 195 193 199 198 198 200 201 201 196 197 207 212 202 200